Wind_Speed
15 16 17 17 18 19 19 19 19 20 21 22 23 24 25 26 26 26 25 24 24 23 24 23 23 22 22 22 22 22 22 23 23 23 24 24 24 24 24 25 25 25 26 26 26 26 26 26 26 26 27 28 29 30 30 30 30 29 28 26 25 24 24 24 24 25 26 27 26 25 23 22 22 23 25 25 25 25 27 29 30 31 31 32 32 32
16 16 17 17 17 18 18 18 18 18 18 19 20 21 21 22 24 24 24 24 23 23 23 23 23 24 24 24 25 25 26 26 25 25 24 23 22 22 22 23 23 24 25 25 26 26 27 27 28 29 29 29 30 30 29 29 28 27 26 24 23 22 22 23 23 24 25 27 28 27 25 24 22 22 24 26 26 26 26 27 28 30 30 31 32 33
16 16 16 16 16 16 16 17 17 17 17 18 19 20 20 21 22 23 23 23 23 23 23 24 24 25 26 26 26 26 26 25 24 23 21 20 20 20 20 21 22 23 24 24 25 26 27 28 29 29 29 29 29 28 28 27 27 26 24 23 22 22 22 22 22 23 24 26 27 28 28 26 24 23 23 25 27 28 27 27 28 28 29 30 31 32
15 15 15 15 15 16 16 16 17 17 18 18 19 20 21 21 22 23 23 24 24 25 25 25 25 26 26 26 26 26 25 24 23 22 21 20 20 20 20 21 22 22 23 24 25 26 27 27 28 28 29 28 28 27 27 26 25 25 24 24 24 24 24 24 23 23 24 25 26 27 28 28 27 25 24 25 26 28 29 29 29 29 29 30 31 32
15 15 15 15 15 16 16 16 17 18 19 19 20 21 22 22 23 24 25 25 26 26 27 26 26 26 26 26 26 25 25 24 24 24 23 23 23 23 23 23 23 23 24 24 25 25 26 26 27 27 27 27 27 27 26 25 25 24 24 25 26 26 27 27 26 25 25 25 25 26 27 28 28 27 26 25 25 27 29 30 30 30 30 30 31 31
15 15 15 15 16 16 17 17 17 18 19 20 21 22 23 23 24 25 26 26 26 27 27 26 26 26 26 26 26 26 25 26 26 26 25 25 24 24 23 22 22 22 22 22 22 23 23 23 23 23 23 24 24 25 24 24 23 23 24 26 27 28 28 28 27 27 26 25 26 26 27 27 28 28 28 27 26 26 27 29 30 31 31 31 32 32
16 16 16 16 17 17 18 18 19 19 19 20 21 22 23 24 24 25 25 25 25 25 25 25 25 25 25 25 25 25 25 25 25 24 23 22 21 20 19 18 18 18 19 19 19 20 20 20 19 19 18 19 20 21 22 22 23 24 25 26 27 27 27 27 26 26 26 25 26 26 26 27 28 28 29 28 27 26 27 28 29 31 32 32 34 34
16 17 16 16 17 18 19 19 19 19 19 19 20 21 22 22 22 22 22 22 22 22 23 23 23 24 24 24 24 23 23 22 21 20 20 19 18 18 18 18 18 18 19 19 20 20 20 20 20 19 18 18 19 20 22 23 24 25 26 26 26 26 26 25 25 25 25 25 25 25 26 26 27 28 29 29 28 27 27 28 29 30 32 33 35 36
16 16 17 16 16 17 18 19 18 18 18 19 19 20 20 20 20 20 20 20 20 20 20 21 21 22 21 21 20 20 20 19 19 19 19 19 20 20 20 21 21 21 22 22 22 22 22 22 21 21 20 20 20 21 22 24 24 25 25 24 24 24 24 24 24 24 24 24 24 24 25 26 26 27 28 29 29 28 28 28 29 30 31 33 35 36
16 16 16 16 16 16 17 18 18 18 17 17 18 19 19 19 19 19 19 19 18 18 17 18 18 19 19 19 18 19 20 21 21 22 22 23 23 23 24 24 24 24 23 23 23 22 22 21 21 20 20 19 19 20 21 22 22 23 23 23 22 23 23 23 24 24 24 24 24 24 24 24 25 27 28 29 29 29 29 29 29 30 31 33 34 36
15 15 15 16 16 16 16 17 17 17 16 16 17 18 18 17 17 16 17 17 17 16 16 16 17 17 19 20 20 21 22 23 24 24 25 25 25 25 25 25 24 24 23 23 22 21 21 20 20 19 19 18 18 18 19 19 20 21 21 21 21 22 22 23 23 23 24 24 24 24 23 23 24 25 27 28 30 30 30 30 30 30 31 33 34 35
14 15 15 15 15 15 15 16 16 16 15 15 15 16 16 15 14 14 16 16 17 17 17 18 18 19 20 21 21 22 22 23 24 24 25 25 25 25 25 24 24 23 23 23 22 22 21 21 20 20 19 19 18 18 18 19 19 19 20 20 20 21 21 22 23 23 24 25 25 25 24 23 23 23 25 27 29 30 31 30 30 31 32 33 33 34
15 14 15 15 15 15 15 15 15 15 15 14 14 14 14 15 15 15 16 18 19 19 20 20 20 20 20 20 20 20 21 21 22 22 22 22 22 21 21 22 22 23 23 23 23 23 22 22 22 21 21 21 20 20 20 20 20 20 20 20 20 21 21 22 23 24 25 26 26 27 26 25 24 23 24 25 27 30 31 31 31 31 32 33 33 34
15 15 15 15 15 15 15 15 15 15 15 14 14 15 16 17 18 18 19 20 20 21 20 21 21 21 20 19 19 18 19 19 20 19 19 18 18 18 18 20 21 22 22 23 24 24 24 23 24 24 24 24 24 24 23 23 23 23 22 22 22 22 22 23 24 25 26 27 28 29 28 28 26 25 24 24 25 27 29 31 31 31 32 32 33 34
14 14 13 13 14 15 15 15 15 16 16 16 17 18 19 20 20 19 19 20 20 20 20 20 21 21 19 18 16 16 16 17 17 17 17 17 17 17 18 20 22 23 23 24 25 26 25 25 26 26 27 27 27 27 27 27 27 27 26 26 25 25 25 25 26 26 27 28 30 30 31 30 29 27 26 24 24 25 27 28 30 30 31 32 33 34
14 14 13 13 14 15 16 15 16 16 17 17 18 18 18 19 19 18 18 19 19 19 18 18 17 17 17 16 14 13 14 15 16 17 18 19 19 19 19 21 23 24 25 26 27 28 28 28 29 29 30 30 30 30 30 30 30 30 30 30 30 29 29 29 29 29 30 30 31 32 32 32 31 30 28 26 25 24 25 26 28 29 30 31 32 33
14 14 14 14 15 16 16 16 16 17 17 17 17 17 17 18 18 18 17 18 17 16 15 14 9 6 10 14 14 12 12 15 17 18 20 21 21 21 20 21 23 24 25 27 28 29 30 31 32 32 33 33 32 32 32 32 32 32 32 33 34 34 33 33 32 31 31 31 31 31 32 32 32 31 30 28 26 25 25 25 26 27 29 30 31 32
13 13 13 13 14 15 15 15 15 16 16 17 17 17 17 18 18 18 17 17 16 15 15 14 10 6 5 11 14 14 13 16 19 20 20 22 22 21 20 21 22 23 25 26 28 30 31 32 33 34 34 35 35 35 34 34 34 34 34 34 34 34 34 33 31 30 30 30 30 30 31 31 32 32 31 29 28 26 26 25 26 27 28 29 30 32
10 10 11 11 12 13 14 13 14 14 15 15 16 16 17 18 18 18 18 18 17 17 16 15 15 14 13 16 18 18 16 18 19 20 20 22 22 21 19 19 21 24 25 26 27 28 30 32 33 34 34 35 35 35 35 35 34 34 33 32 32 32 31 31 30 29 29 29 29 29 30 31 31 31 31 30 29 28 27 26 26 27 27 28 29 31
12 11 11 11 12 13 14 14 14 14 14 14 15 16 17 17 18 18 18 18 18 19 19 19 18 18 19 20 21 20 18 18 18 17 17 20 22 22 20 20 21 23 24 25 25 26 28 29 30 31 32 33 33 33 34 34 33 33 32 31 31 30 30 30 30 30 29 29 29 29 30 30 31 31 31 31 30 29 28 27 27 27 27 28 28 29
16 16 15 14 14 15 17 18 18 17 16 16 16 16 16 16 16 16 17 17 18 19 19 18 19 19 18 18 18 17 14 13 14 15 16 19 22 23 22 21 21 23 24 24 25 25 26 26 28 29 30 30 31 31 32 32 33 33 32 32 31 31 31 31 31 31 31 30 30 30 30 31 31 31 31 31 30 30 29 28 27 27 27 27 28 28
20 21 21 20 19 19 21 21 21 20 19 19 19 18 17 17 18 18 19 19 19 19 18 18 18 19 18 18 18 17 17 18 19 19 19 20 22 24 21 20 20 22 23 23 24 24 24 25 25 26 27 28 28 29 30 31 32 33 33 33 33 32 32 31 31 32 32 32 31 31 31 32 32 32 32 31 31 30 30 29 28 28 28 28 27 28
23 23 23 23 22 22 22 22 22 21 21 22 22 22 21 20 20 21 21 21 22 22 23 23 24 24 25 26 26 26 24 23 22 21 20 15 18 21 19 18 19 21 22 22 22 23 23 24 24 25 26 27 28 28 29 30 32 33 33 34 34 33 33 32 32 32 32 32 32 32 32 32 32 32 32 32 31 31 31 30 29 29 28 28 28 28
23 23 23 23 22 22 22 22 23 23 24 24 24 23 23 24 24 25 25 24 25 25 25 25 26 26 26 25 25 25 24 22 21 21 19 16 18 20 19 18 19 21 22 22 22 22 23 23 23 24 25 26 27 27 28 29 31 32 33 33 34 33 33 32 32 32 32 33 32 32 32 32 32 32 32 32 32 32 32 31 31 30 30 29 28 28
22 23 23 22 22 23 23 23 23 24 24 24 23 23 23 24 24 25 26 26 25 24 23 22 22 21 22 22 22 23 23 21 20 20 19 17 19 21 20 19 19 21 23 22 22 22 24 24 24 24 25 26 27 27 28 28 30 31 32 33 33 33 33 33 32 33 33 33 33 32 32 31 31 31 31 31 32 32 32 32 32 31 31 30 30 30
23 24 24 24 24 24 24 24 24 24 23 22 21 21 21 22 23 24 24 24 23 21 20 18 16 17 19 19 21 22 22 21 21 22 21 18 19 21 21 19 19 21 23 22 21 22 23 25 25 25 25 27 27 27 27 28 29 30 32 33 34 34 34 33 33 33 33 33 33 32 31 31 30 31 31 31 32 32 32 32 32 32 31 31 30 31
26 27 27 27 27 26 26 26 26 25 24 23 23 23 23 24 25 24 22 21 20 20 18 13 10 11 15 17 21 23 24 23 22 23 22 21 19 19 19 17 17 20 22 22 22 22 23 25 26 26 26 27 28 27 27 28 29 30 31 32 32 32 32 32 32 31 31 30 30 30 29 29 29 30 31 32 32 31 31 32 32 32 31 30 30 31
28 28 28 28 27 27 28 28 27 26 25 24 24 25 25 26 26 25 24 22 22 21 19 14 10 8 10 16 21 24 25 23 22 21 20 18 16 16 17 16 17 19 21 22 22 23 24 26 26 26 26 27 27 26 26 27 27 28 29 29 29 29 29 29 28 26 25 25 25 25 26 26 27 29 30 31 31 31 31 31 32 31 30 29 28 29
28 29 29 29 28 28 28 28 27 26 25 25 26 27 27 26 26 25 24 23 21 19 18 18 15 12 13 17 21 21 20 18 17 17 16 14 15 16 17 16 18 21 20 20 21 22 22 22 22 23 23 24 23 23 23 24 25 26 27 27 27 27 26 25 24 23 23 24 24 24 25 26 27 28 29 29 30 30 30 31 30 30 28 26 26 26
28 29 29 28 28 27 26 26 26 26 26 27 28 28 27 27 27 26 25 23 20 18 18 17 15 14 13 12 10 9 10 12 13 12 13 13 15 16 17 17 18 19 17 14 12 12 15 17 18 18 19 20 20 20 21 24 25 27 27 27 26 25 25 25 26 26 26 26 26 26 26 27 27 27 28 28 28 28 27 27 27 26 25 24 24 24
23 23 23 24 23 23 23 24 25 27 28 29 29 28 28 27 27 26 26 24 22 21 20 19 17 16 13 7 3 2 4 11 13 13 14 15 16 17 16 15 17 18 16 11 5 2 7 10 14 16 18 19 20 20 22 25 27 27 27 26 25 25 26 26 27 28 28 29 29 28 28 28 28 27 27 27 26 25 24 24 24 25 25 25 24 24
20 20 21 21 22 22 23 24 25 27 28 28 28 28 27 26 26 26 25 25 24 23 23 22 21 21 19 15 11 8 10 16 18 17 17 17 19 19 16 16 17 19 18 16 12 8 6 5 11 17 19 22 22 23 24 25 26 26 24 23 23 24 24 25 26 27 28 29 29 28 28 28 27 27 27 27 26 25 24 24 24 24 25 25 25 25
21 21 22 22 22 23 23 24 25 26 27 27 26 26 26 26 26 27 26 26 25 25 24 24 23 22 22 22 20 20 22 23 22 20 19 19 20 19 18 18 19 21 21 19 19 18 14 12 16 21 23 24 24 23 23 23 22 21 20 20 21 22 24 24 25 26 26 27 27 27 27 27 27 27 28 27 27 26 25 24 23 23 23 24 24 24
20 21 21 21 22 22 23 23 24 24 24 24 24 24 24 25 26 26 26 26 26 25 24 23 22 21 21 20 21 23 25 25 24 22 20 21 20 18 17 18 20 21 20 18 18 19 19 20 21 21 22 24 24 22 20 19 18 18 19 20 22 24 25 25 25 25 25 25 25 26 26 26 26 26 26 25 25 24 24 23 22 22 22 23 24 24
19 20 20 20 20 20 20 19 19 20 20 21 21 21 22 22 23 24 24 23 22 21 21 21 21 21 21 19 18 20 23 24 23 21 20 21 20 18 16 17 19 20 18 17 16 15 15 19 22 21 19 20 20 20 18 17 18 19 21 23 25 26 26 26 25 24 23 23 24 24 25 25 25 25 24 22 22 22 22 22 22 22 22 23 24 25
19 20 19 18 18 18 19 19 19 19 20 20 20 19 18 18 19 19 18 18 18 18 19 20 21 22 23 23 22 22 23 24 23 22 22 23 21 19 16 15 16 17 16 16 15 14 13 15 18 19 17 14 13 14 17 18 19 21 23 25 26 27 27 26 25 24 24 24 24 24 25 25 25 25 24 23 23 23 23 23 23 23 23 24 25 26
19 19 19 18 18 19 20 20 19 19 19 18 17 16 17 18 19 20 21 21 20 20 20 20 21 22 24 25 26 26 26 25 25 25 25 25 24 23 20 18 17 17 16 16 17 16 13 12 12 13 13 11 11 12 16 19 21 22 24 25 26 26 27 27 26 26 26 26 26 26 26 26 26 26 25 25 25 25 25 24 23 23 23 24 25 26
18 18 18 18 18 18 18 17 17 17 17 17 18 19 21 23 24 25 25 25 24 22 22 22 22 23 24 25 26 28 28 28 27 27 26 26 26 26 25 25 24 23 23 23 21 19 17 12 9 9 9 13 17 19 21 21 21 21 23 24 26 26 27 27 26 26 26 26 26 26 26 26 25 25 26 26 26 25 25 24 24 23 22 23 24 26
16 17 17 17 17 17 17 17 18 18 19 21 22 24 25 26 27 27 28 27 26 25 24 24 24 24 25 26 27 28 29 29 29 29 29 29 29 29 27 27 27 28 28 27 25 22 20 17 13 10 8 13 18 22 24 23 22 22 23 24 25 26 26 26 25 24 24 24 24 24 25 25 25 25 26 26 26 25 24 24 23 22 21 22 23 24
17 17 17 18 18 19 19 20 21 22 23 24 25 25 26 26 26 26 26 26 26 25 25 25 25 25 26 27 28 28 29 30 31 32 32 32 32 31 30 28 28 29 29 27 25 23 22 23 22 22 21 18 18 20 22 22 22 22 22 21 22 23 24 25 24 24 24 24 24 23 23 24 24 25 26 26 26 25 24 23 23 22 21 21 21 22
18 19 19 20 20 21 21 22 22 23 24 24 24 24 24 24 24 24 24 23 23 23 23 23 24 25 27 28 28 29 30 31 32 32 32 32 33 33 32 31 29 28 28 26 25 24 23 24 24 24 24 23 22 22 23 23 24 24 23 22 22 24 26 26 26 25 25 24 24 23 23 23 23 24 25 26 26 25 24 24 23 22 22 21 21 21
19 20 20 21 21 21 21 21 21 21 21 21 20 20 19 19 19 18 19 19 19 19 20 21 23 25 26 27 28 28 29 29 29 30 30 31 32 33 34 34 32 30 28 26 25 25 25 24 24 24 24 23 22 21 21 24 26 26 25 24 24 25 26 27 26 24 22 22 22 22 22 22 23 23 24 25 25 25 24 24 23 22 22 22 22 22
20 21 21 21 20 19 18 18 18 18 18 17 17 17 17 18 18 18 18 19 20 21 21 22 23 23 23 23 23 22 22 22 23 25 27 29 30 32 33 34 34 32 30 27 24 24 26 25 24 24 25 24 23 22 21 23 25 26 26 24 23 20 18 21 23 22 22 21 21 22 22 23 23 24 24 25 25 25 24 24 23 23 23 23 23 23
20 19 19 18 18 18 18 18 19 19 20 20 21 21 21 20 20 20 20 21 21 21 21 21 19 18 17 16 17 19 21 22 23 24 25 27 28 30 32 33 34 33 32 29 26 24 25 24 25 25 25 24 23 23 22 22 21 21 21 22 21 20 18 20 22 23 23 24 24 25 25 25 25 25 25 26 26 25 25 24 24 24 24 24 24 24
17 17 17 18 19 20 21 21 22 22 22 22 22 22 22 21 20 19 19 19 19 18 17 17 17 18 19 22 23 24 23 23 23 23 23 24 25 26 28 31 32 33 33 31 29 26 24 23 23 24 24 22 22 21 21 20 20 19 20 21 22 23 23 24 24 25 25 25 26 27 27 27 27 26 25 25 26 26 25 25 25 25 25 24 24 24
17 19 20 21 22 22 22 22 22 21 21 21 21 20 20 19 19 18 18 18 18 19 20 21 20 19 19 20 21 21 21 21 21 21 21 21 22 22 24 26 28 30 30 30 30 29 28 26 25 23 22 20 21 21 21 21 21 20 22 23 23 23 24 25 26 26 26 26 26 27 28 27 26 25 23 24 25 26 26 26 25 25 25 25 24 25
20 21 21 21 21 21 21 21 20 19 19 20 20 19 19 19 19 19 19 20 20 21 21 21 20 19 19 19 20 20 20 20 21 21 21 21 21 21 21 22 24 25 27 28 29 29 29 29 27 25 22 19 19 20 22 22 22 22 22 24 23 23 23 25 26 27 26 26 26 26 26 24 23 22 22 24 25 25 26 26 26 25 25 25 25 25
19 20 20 20 20 20 20 20 19 19 19 19 20 20 20 20 20 20 20 21 21 20 20 20 19 19 19 20 21 21 20 20 20 21 22 22 22 22 22 22 22 23 24 26 27 28 29 29 29 28 25 21 19 20 21 22 22 22 22 23 23 22 23 25 27 27 26 26 27 27 26 24 22 21 22 23 23 23 23 24 25 26 26 25 25 25
19 20 20 20 20 20 20 20 20 19 19 20 21 21 21 21 21 20 20 20 20 20 19 19 19 19 19 19 20 21 20 20 20 21 22 22 22 22 22 22 22 22 23 24 25 26 27 29 30 31 30 27 24 23 24 24 24 24 23 23 23 23 24 25 27 26 25 25 26 27 26 25 25 25 25 23 21 21 21 22 24 26 27 27 26 26
20 21 20 20 20 20 20 19 19 20 20 20 21 21 21 21 21 20 19 19 19 18 18 18 18 18 18 19 20 20 20 20 20 21 22 22 22 21 20 20 21 20 20 20 20 20 22 22 25 28 30 31 30 28 25 25 25 25 23 23 24 25 25 26 26 26 25 24 24 25 25 26 27 28 26 22 19 18 19 21 23 25 28 28 27 26
21 21 20 20 19 19 20 19 19 20 20 20 21 21 21 21 20 20 19 18 18 19 19 19 18 18 18 19 20 21 21 20 20 21 22 22 21 20 19 19 19 18 16 14 14 13 12 11 14 18 23 27 29 29 28 26 24 23 22 23 24 25 25 26 26 26 25 24 23 23 24 25 26 26 24 19 16 15 16 18 21 24 27 27 27 26
Wind_Direction
283 283 283 283 282 281 280 280 281 282 283 283 284 284 284 284 285 285 286 286 287 287 286 286 287 287 286 286 286 287 288 289 289 289 288 287 287 286 286 285 285 285 284 284 284 285 287 289 291 292 292 292 293 294 295 296 297 298 299 299 299 297 294 291 286 280 275 272 272 273 276 275 267 255 245 239 236 233 230 227 225 224 223 223 224 225
281 280 279 277 276 276 276 277 278 279 281 283 283 283 284 284 283 283 282 282 283 284 285 286 286 287 287 287 288 289 290 291 291 291 290 290 289 288 286 285 284 283 282 282 283 284 286 288 289 290 291 291 292 292 293 294 295 297 299 300 301 300 298 295 290 284 278 274 272 271 272 272 269 262 251 243 238 236 234 232 229 228 227 227 227 227
282 279 276 275 275 276 277 280 280 280 281 283 284 285 286 286 286 285 285 285 285 284 285 286 287 288 288 288 289 289 290 290 291 291 290 290 289 287 286 285 283 282 281 281 282 283 285 286 287 288 288 288 289 289 290 291 293 294 297 299 301 302 302 300 296 290 284 278 274 271 270 269 268 265 258 249 242 238 237 236 235 233 231 230 230 229
281 279 279 280 280 280 280 282 284 284 283 284 285 286 287 288 288 288 288 288 288 287 286 287 287 288 287 287 287 287 287 287 288 288 288 288 287 287 286 285 283 282 281 282 282 283 284 284 284 284 284 285 285 286 286 288 289 291 294 296 299 301 303 303 301 296 290 284 278 273 270 268 266 265 262 256 247 241 238 239 239 239 237 235 233 232
280 280 283 284 284 283 282 283 285 285 286 285 286 287 287 288 289 289 289 289 289 289 288 288 287 286 286 286 285 285 285 285 286 287 288 288 288 288 287 286 285 284 283 283 283 283 282 282 281 281 282 282 282 283 283 284 286 288 292 295 298 301 303 304 303 300 296 290 284 278 272 268 265 263 262 260 255 247 241 239 240 242 243 242 240 237
280 280 283 284 284 284 285 285 286 288 289 289 288 288 288 288 289 290 291 291 290 290 289 288 287 286 285 285 285 286 286 287 287 288 289 289 289 289 288 288 287 286 285 285 284 283 282 282 281 282 283 283 283 282 283 283 285 287 291 295 298 302 304 304 304 302 299 294 289 283 277 270 265 262 261 261 259 253 246 241 240 241 243 246 245 243
282 281 283 283 283 284 285 285 287 288 291 291 291 290 289 289 290 290 290 291 290 290 289 288 286 286 286 286 287 288 288 288 289 289 288 288 288 288 287 287 287 286 286 286 286 286 286 286 287 288 288 288 287 286 286 286 287 290 293 296 299 301 302 303 303 302 300 298 294 289 283 275 268 262 259 259 258 256 251 245 241 240 240 242 244 244
285 284 284 284 285 286 286 285 286 287 288 290 291 292 292 291 290 289 288 288 288 288 289 289 289 289 289 289 289 290 289 288 288 287 286 286 286 286 286 287 287 288 289 290 291 291 292 292 293 294 293 291 290 289 289 290 291 293 295 297 299 299 300 300 300 301 301 300 298 295 290 283 274 266 260 257 257 256 254 249 245 242 240 239 240 242
286 287 286 284 285 287 288 286 285 285 286 287 288 289 290 290 290 289 288 287 287 288 290 292 292 292 291 290 289 288 287 286 285 285 286 287 287 288 289 290 291 292 292 293 294 295 295 295 296 295 294 292 290 290 290 291 293 294 296 297 297 297 296 297 297 299 300 301 301 298 294 289 281 273 264 259 257 256 255 252 248 245 243 241 240 241
287 287 287 286 285 284 286 286 286 287 287 286 285 284 286 288 291 292 291 289 288 289 290 291 293 294 293 291 289 288 287 285 284 284 286 287 289 291 292 293 294 295 295 295 295 295 295 295 295 294 293 292 290 290 290 291 292 294 295 295 295 294 294 295 296 298 300 301 302 301 297 292 286 278 271 264 259 258 257 254 251 248 246 244 243 243
291 290 290 289 288 286 283 284 287 289 289 287 285 284 283 285 290 295 296 294 293 293 293 292 293 294 295 295 293 292 291 290 288 287 287 287 289 291 292 293 294 294 294 293 293 292 291 291 291 291 291 290 289 289 289 289 291 292 293 293 293 293 293 294 296 298 300 302 303 303 301 296 289 282 275 268 263 260 259 257 254 251 249 247 246 245
295 295 293 292 292 291 288 287 288 290 291 291 291 290 287 288 292 297 299 298 298 298 298 296 294 293 293 294 295 294 293 292 291 291 290 290 290 291 292 292 292 291 291 290 288 287 287 287 287 287 287 287 287 287 287 288 289 290 291 292 292 293 293 294 296 298 300 302 303 304 304 301 295 287 279 272 267 263 261 259 257 255 252 250 248 247
297 297 296 294 293 292 292 294 294 295 294 294 295 295 294 296 299 300 299 297 296 297 299 298 295 292 291 291 292 293 293 292 291 291 291 291 291 291 292 291 291 290 289 288 287 285 285 285 285 285 285 285 285 285 285 286 287 289 290 291 292 293 294 294 296 297 298 300 301 302 303 302 299 293 284 275 269 265 262 261 259 257 255 253 250 248
298 299 298 295 293 292 293 296 297 296 294 293 293 294 296 299 301 301 298 295 294 295 297 296 294 292 291 289 289 290 291 291 290 290 289 288 288 290 291 292 291 291 291 291 289 288 287 287 288 287 287 286 286 286 286 287 287 288 289 290 291 292 293 293 293 294 295 296 297 298 299 300 300 298 293 284 275 268 264 262 260 259 257 255 253 250
297 299 297 293 291 291 291 293 293 291 290 291 292 294 296 297 298 298 296 293 294 296 297 295 294 293 290 288 288 289 289 289 291 293 292 290 289 290 293 295 295 294 294 294 293 291 289 290 291 291 290 289 289 289 289 288 288 288 289 289 289 289 289 290 290 290 290 291 292 293 294 296 297 298 297 292 284 276 269 265 263 261 259 257 255 252
288 290 288 288 287 287 287 288 288 288 289 291 292 294 296 296 295 295 293 292 294 297 297 297 297 294 290 287 286 287 288 291 296 300 301 298 295 294 297 300 301 300 298 296 295 293 292 291 291 291 291 290 290 290 290 289 289 289 288 287 287 287 287 287 287 286 286 286 287 288 290 291 293 294 295 294 290 284 276 271 267 265 263 261 259 256
278 277 276 278 280 281 283 283 283 284 287 289 291 291 291 291 292 292 291 292 294 296 295 296 297 295 293 291 288 285 289 295 300 303 304 300 298 298 299 300 301 301 299 296 294 293 292 291 290 290 289 289 289 289 289 288 288 287 287 287 287 287 287 287 287 286 285 284 284 284 286 287 289 290 292 292 290 287 282 276 272 269 267 266 264 261
272 269 268 269 273 277 280 280 279 280 283 285 287 288 288 288 289 290 290 291 293 294 293 293 290 286 290 290 287 287 293 297 301 302 300 296 294 295 298 298 298 297 296 294 292 291 291 290 290 289 289 288 288 288 287 287 286 286 286 287 287 288 289 289 289 288 287 285 283 283 283 285 286 288 288 289 289 287 284 280 275 272 270 269 267 265
287 283 280 278 281 284 284 282 282 283 284 284 286 288 287 287 287 287 286 287 288 289 290 289 286 283 283 283 284 287 293 294 295 295 292 289 289 292 295 296 294 292 291 289 288 289 289 289 289 289 289 289 289 288 288 288 287 287 287 287 287 288 289 290 291 291 290 288 285 284 283 284 285 285 286 286 286 286 284 282 278 275 272 270 269 268
299 296 293 296 298 296 292 289 289 290 291 293 293 292 290 289 288 285 283 284 284 284 283 282 280 279 279 279 282 285 288 287 287 288 288 288 287 288 290 290 288 287 285 284 284 286 287 287 288 289 290 291 291 291 291 291 290 289 289 288 288 288 289 290 291 292 291 290 288 286 285 284 284 284 284 284 284 284 284 282 280 277 274 272 270 269
291 287 285 288 292 291 286 285 285 288 292 296 297 295 292 291 290 287 286 287 286 284 281 276 275 276 278 278 280 284 287 289 292 295 294 290 287 284 285 284 282 281 280 280 282 283 284 285 286 287 288 290 290 291 292 292 292 291 290 290 289 288 288 288 289 290 291 291 290 288 286 285 284 283 283 283 283 283 282 282 281 279 277 274 272 270
283 281 280 280 280 280 280 281 281 282 284 285 285 284 284 284 285 285 285 286 285 284 282 279 280 282 284 284 285 286 288 288 290 291 290 286 282 280 281 280 278 277 277 278 280 282 282 282 283 284 285 285 287 288 289 289 290 290 290 290 289 288 287 287 288 289 290 290 290 288 287 285 284 283 283 283 283 282 282 282 282 280 279 276 273 272
276 276 277 277 276 275 276 277 278 278 277 275 273 271 272 273 275 276 277 277 277 277 276 277 279 280 280 280 281 281 281 279 278 277 278 276 276 278 280 278 276 274 274 276 279 281 281 280 280 281 282 283 284 285 285 286 287 287 288 288 287 287 286 286 287 287 288 289 289 288 287 285 284 284 283 283 283 283 283 282 282 281 280 278 275 274
272 273 274 274 273 271 271 271 272 273 272 270 268 267 268 269 270 271 273 273 272 270 270 272 273 273 273 274 276 276 276 274 270 267 265 266 270 274 276 275 273 273 273 275 277 279 279 278 278 279 280 281 281 282 283 283 284 285 285 285 285 285 285 285 286 286 287 288 288 288 287 285 284 283 283 282 282 282 282 282 282 282 281 279 277 276
272 272 272 271 270 270 270 268 269 270 270 268 268 269 272 275 276 276 275 272 269 265 264 265 266 267 268 272 274 275 275 272 266 260 257 261 267 270 271 270 270 271 273 275 276 277 277 277 277 277 278 278 278 279 279 280 281 281 282 282 283 283 284 284 285 285 286 287 287 287 286 285 284 282 281 281 281 280 281 281 281 282 281 280 278 277
275 274 274 273 272 271 271 269 268 268 269 269 271 274 279 281 281 279 275 270 265 261 258 257 257 260 265 269 272 273 274 271 263 255 252 256 263 266 267 267 267 269 273 275 276 275 275 275 276 276 276 276 276 276 276 277 277 278 279 280 281 282 282 283 284 284 285 285 286 286 285 283 282 281 280 280 279 279 278 279 280 281 282 281 279 277
276 276 276 276 275 274 273 271 270 270 271 272 274 278 283 284 284 280 274 269 265 261 256 254 255 259 263 266 268 270 271 268 261 254 249 250 256 262 263 265 266 268 272 276 276 275 274 275 275 275 274 274 274 274 274 275 275 276 277 278 279 280 281 282 283 284 285 286 287 286 285 283 282 281 280 279 279 278 277 277 279 280 280 279 278 277
277 276 275 274 274 274 273 272 271 271 272 274 276 280 283 284 283 280 276 273 268 262 256 255 255 258 262 264 266 267 266 263 257 250 244 243 248 256 262 267 269 270 274 278 279 276 272 271 272 271 270 270 271 273 274 275 276 277 277 278 279 280 281 281 282 284 287 289 291 292 291 288 286 284 283 282 280 278 277 277 277 276 276 275 274 275
278 276 274 272 271 270 269 269 269 270 273 276 279 281 281 280 279 277 276 276 272 266 261 260 258 258 260 263 265 264 259 252 247 244 241 242 249 259 268 273 273 273 275 280 281 278 271 268 267 267 267 268 270 272 275 277 278 279 279 279 279 279 279 280 283 286 290 293 295 296 295 294 292 290 287 285 282 280 277 276 274 272 270 270 270 272
280 277 273 271 269 268 268 268 269 271 274 276 278 279 278 276 274 275 277 280 278 274 272 271 268 265 264 267 267 261 252 246 245 247 251 256 262 269 275 275 272 270 272 277 281 279 273 270 268 268 268 270 271 274 277 279 280 280 280 279 278 277 278 281 285 288 292 294 295 295 294 294 293 292 290 288 284 280 277 275 274 273 272 271 271 272
282 278 275 273 273 272 271 271 271 272 273 275 275 275 274 273 272 272 275 276 276 275 275 276 276 276 277 282 288 278 263 264 264 265 268 269 271 273 276 273 270 267 266 265 268 289 280 277 274 273 273 274 275 276 277 278 278 278 277 277 277 278 280 283 286 288 291 292 293 293 293 292 292 291 290 289 286 283 281 280 279 279 277 276 274 272
286 284 281 280 279 277 274 272 272 272 272 272 272 271 271 270 270 270 270 269 269 269 270 271 273 274 275 275 273 274 275 275 274 273 272 272 272 272 270 266 266 266 264 258 257 266 280 283 279 276 274 275 275 275 275 275 274 274 275 277 279 282 283 285 286 288 290 291 291 291 291 290 290 289 289 287 286 284 283 283 282 281 279 277 274 272
288 285 283 282 280 277 275 274 274 273 273 271 270 269 269 270 269 269 267 266 265 265 265 266 268 270 270 270 269 270 271 273 274 273 269 267 267 267 263 258 259 262 263 258 256 258 265 272 277 277 274 273 272 271 269 268 269 272 277 282 285 286 286 287 287 288 288 289 290 290 289 289 288 287 285 283 282 282 283 282 281 279 277 275 273 271
293 289 287 285 283 281 279 279 277 276 275 273 272 271 271 271 271 270 268 267 265 263 262 263 265 267 269 269 268 268 269 271 272 272 268 262 261 260 258 253 252 255 259 258 256 257 262 267 270 272 271 269 267 263 259 260 265 274 281 285 286 286 286 286 287 287 287 288 288 289 289 289 287 284 281 279 280 281 282 282 281 279 276 274 272 270
298 295 293 291 289 288 287 286 284 283 282 282 280 278 275 275 275 274 273 270 268 268 268 268 268 268 267 268 268 269 269 271 272 272 269 263 260 259 257 251 248 250 253 255 256 259 265 265 264 263 263 265 263 259 257 262 271 278 281 282 282 282 282 283 285 285 286 287 287 288 289 289 288 285 282 280 280 282 283 283 282 280 278 275 272 269
299 297 295 295 295 294 293 291 290 288 286 285 282 281 281 283 285 286 286 286 287 288 288 284 278 273 269 267 267 268 271 273 275 274 271 267 264 263 261 256 250 249 252 256 261 265 268 267 263 259 257 260 263 265 268 273 279 281 280 279 279 279 279 281 282 282 283 284 285 286 287 287 287 286 284 283 282 282 282 282 281 280 278 276 273 269
298 297 296 295 294 292 291 289 288 287 285 284 284 286 290 293 294 295 296 297 297 295 290 286 281 276 273 270 269 269 271 273 274 273 272 270 269 268 269 269 268 266 266 271 275 276 274 272 269 267 264 266 272 278 281 284 284 283 280 279 278 278 279 280 281 281 281 281 282 282 283 284 284 284 283 283 282 281 281 280 279 278 277 276 274 271
298 296 296 295 294 293 291 291 291 291 291 292 292 293 293 292 292 292 292 293 292 290 287 284 282 279 277 275 273 273 274 274 274 273 271 270 269 269 271 273 275 276 276 278 279 280 277 275 275 276 276 277 279 281 283 284 283 280 279 278 278 278 279 280 281 281 280 279 279 280 281 282 282 282 282 281 281 280 279 279 278 277 277 277 276 274
300 298 298 298 297 296 296 296 295 294 292 291 290 289 288 288 287 287 287 287 287 286 285 284 283 282 280 279 278 277 276 276 275 274 272 270 269 267 267 269 271 272 273 273 272 271 269 268 269 272 276 278 279 279 279 278 277 276 277 278 279 279 279 280 281 280 279 278 277 278 279 280 281 281 280 279 278 277 276 276 276 276 276 277 277 277
301 300 299 298 297 295 293 292 290 289 288 287 286 286 285 285 284 283 283 283 283 283 284 284 283 282 281 280 279 277 276 275 274 273 272 270 269 267 265 265 266 268 268 267 265 263 262 264 265 267 269 272 274 274 274 272 271 271 273 275 277 277 278 279 279 279 277 275 274 274 276 278 278 278 276 275 274 272 271 272 272 272 273 274 275 275
299 298 297 296 294 292 290 288 287 287 287 287 286 285 284 282 281 280 281 280 280 281 283 284 284 284 284 281 280 278 276 274 273 271 270 269 268 267 265 263 262 263 264 263 261 259 258 260 262 264 266 267 268 269 269 268 267 268 268 269 271 274 277 278 278 277 275 272 271 271 273 274 275 274 273 272 270 268 267 267 267 269 270 270 270 270
296 295 294 294 293 292 292 291 292 292 292 292 290 288 287 287 286 285 284 284 283 284 285 285 286 285 283 281 279 277 274 271 270 269 270 270 269 268 265 262 260 259 259 259 258 257 256 256 258 261 263 264 265 266 266 266 265 264 263 263 266 270 275 275 275 273 271 270 270 270 271 273 273 272 271 270 269 267 266 265 265 266 268 268 267 266
294 293 294 294 295 297 299 301 303 304 305 304 302 300 298 298 296 295 292 291 290 288 287 285 283 281 279 277 277 277 277 276 275 273 273 272 271 268 265 262 259 258 256 254 254 255 256 255 255 256 259 260 261 262 263 264 263 261 260 258 260 263 269 272 274 274 273 272 271 272 272 272 273 273 272 271 270 269 268 267 267 267 267 267 266 264
296 297 300 303 306 309 311 310 309 308 307 304 301 299 298 296 294 292 290 289 288 285 284 283 283 284 285 287 289 291 291 289 286 282 277 273 271 268 265 262 259 257 254 252 251 254 256 255 255 256 256 257 258 259 261 262 261 259 257 258 258 260 263 270 274 276 275 274 273 272 271 271 271 272 272 272 271 270 269 269 269 269 268 266 264 262
304 307 310 311 311 311 309 307 305 304 302 299 297 295 295 294 292 290 289 288 288 288 289 293 296 296 293 292 291 291 291 289 287 284 280 277 274 270 267 263 260 256 253 250 249 249 250 253 254 255 255 254 254 256 258 261 263 265 265 266 266 266 266 269 272 273 273 272 271 270 270 269 269 269 270 270 270 269 268 268 268 268 267 266 263 261
312 311 309 308 307 306 304 303 302 301 299 297 296 295 295 296 295 293 291 291 292 292 293 294 293 290 286 285 286 287 287 287 287 286 285 284 281 278 273 267 262 256 252 249 248 248 248 249 251 253 254 253 253 253 256 260 265 268 270 271 270 269 268 269 269 269 268 268 267 268 268 268 266 265 265 267 267 267 266 265 265 266 266 265 263 261
307 306 305 305 304 303 302 302 301 300 298 297 297 297 297 298 298 296 294 293 291 291 291 290 286 282 280 282 283 284 285 285 285 285 285 285 284 283 281 277 272 266 259 254 252 250 249 249 249 249 250 251 254 256 258 261 263 265 267 268 267 266 265 267 267 267 265 264 264 264 265 264 262 261 262 264 265 265 265 264 264 264 265 264 263 261
304 304 303 303 302 302 301 301 301 300 299 298 298 298 298 298 297 295 293 292 290 289 288 287 284 281 280 279 280 280 280 280 281 281 282 282 282 281 281 281 279 277 273 268 263 260 257 254 252 250 249 250 254 260 263 264 263 263 262 263 262 262 262 265 266 265 264 262 262 262 262 259 258 259 261 262 262 262 262 264 265 266 266 266 265 263
303 302 302 301 301 300 299 300 300 300 299 299 299 299 298 297 296 294 292 291 290 288 286 284 283 282 281 280 280 280 280 279 279 279 280 280 279 278 277 277 277 276 275 274 271 269 266 264 260 256 253 250 252 257 262 264 264 262 261 260 260 261 263 264 265 264 262 260 260 260 259 258 258 259 259 257 257 258 260 263 266 268 270 271 270 267
301 300 300 299 298 298 298 299 299 299 299 299 299 299 298 298 297 295 293 292 291 289 286 285 284 283 283 283 284 284 283 283 282 280 280 279 279 278 276 275 274 273 273 271 268 267 267 265 263 260 257 252 249 249 253 258 260 260 258 257 258 259 260 262 262 262 260 259 258 258 258 259 259 258 254 250 250 255 260 264 267 269 273 277 277 274
299 299 298 297 297 297 297 298 298 298 298 298 298 298 299 299 298 298 296 294 293 291 289 287 286 285 284 285 285 285 284 283 282 281 280 280 279 278 275 273 271 269 268 267 265 263 262 262 261 260 258 254 249 244 242 247 252 255 256 256 256 257 257 259 260 260 258 257 256 256 257 257 256 253 247 243 246 253 260 264 267 270 275 281 283 278
Height
750 750 750 751 751 751 750 750 750 750 749 749 749 748 748 747 747 747 747 747 747 746 746 746 745 745 745 745 745 745 745 745 744 744 744 744 744 743 743 743 743 742 742 742 741 741 740 740 740 740 740 739 739 739 738 738 737 737 736 735 734 733 733 733 732 732 731 731 731 731 731 732 732 733 733 733 733 734 734 734 735 735 736 737 738 739
749 749 749 749 750 749 749 749 749 749 748 748 748 747 747 747 746 746 746 745 745 745 745 744 744 743 743 743 743 743 743 743 743 742 742 742 742 741 741 741 741 740 740 740 739 739 738 738 738 738 738 738 737 737 737 736 736 735 734 734 733 732 731 731 730 730 729 729 729 729 729 729 730 730 731 732 732 732 733 733 733 734 734 735 736 737
748 748 748 748 748 748 747 747 747 747 747 747 746 746 746 745 745 745 744 744 744 744 743 743 743 742 742 742 742 742 741 741 741 740 740 740 739 739 739 739 739 738 738 738 737 737 737 736 736 736 736 736 735 735 735 735 734 733 733 732 732 731 730 729 729 728 728 727 727 727 727 727 727 728 729 730 730 730 731 731 732 732 733 733 734 735
748 747 746 747 747 746 746 746 746 746 746 745 745 745 745 744 744 743 743 743 742 742 742 742 741 741 740 740 740 740 739 739 739 738 738 738 738 738 737 737 737 736 736 736 735 735 735 735 734 734 734 733 733 733 733 733 733 732 731 731 730 729 728 728 727 726 726 725 725 725 725 725 725 726 726 727 728 728 729 729 730 730 731 731 732 733
747 746 746 746 745 745 745 745 745 744 744 744 744 743 743 743 742 742 741 741 741 740 740 740 740 739 739 738 738 738 738 738 737 737 736 736 736 735 735 735 735 734 734 734 733 733 733 733 732 732 732 731 731 731 731 731 731 730 730 729 728 728 727 726 725 725 724 724 723 723 723 723 723 723 724 724 725 726 727 728 728 728 729 729 730 731
745 745 745 745 744 744 743 743 743 743 743 743 743 742 742 742 741 740 740 739 739 739 738 738 738 738 737 737 737 736 736 736 735 735 734 734 734 733 733 733 733 733 732 732 732 731 731 730 730 730 729 729 729 729 729 729 729 728 728 727 727 726 725 724 724 723 723 722 721 721 721 721 721 721 722 722 722 723 724 725 726 727 727 728 728 729
743 744 744 744 743 743 743 742 743 743 743 742 741 741 741 740 740 739 739 738 738 737 737 736 736 736 736 735 735 735 734 734 733 733 733 732 732 732 731 731 731 730 730 730 729 729 728 728 728 728 728 728 728 728 727 727 727 727 726 726 725 724 723 723 722 721 721 720 719 719 719 718 718 719 719 719 720 720 721 722 723 724 725 726 726 727
742 742 743 743 742 742 741 741 742 742 742 741 741 740 739 738 738 738 738 737 737 736 735 735 734 734 734 734 733 733 733 732 732 731 731 730 730 730 729 729 729 728 728 728 727 727 727 727 726 726 726 726 726 726 726 725 725 724 724 723 723 722 722 721 720 720 719 718 718 717 717 716 716 716 717 717 717 718 718 719 720 721 722 723 723 724
742 741 741 742 742 741 740 740 740 741 741 741 740 739 738 737 737 736 736 736 735 735 734 734 733 732 732 732 732 731 731 730 730 729 729 728 728 728 728 727 727 726 726 726 725 725 725 725 725 724 724 724 724 724 724 723 723 723 722 722 721 720 720 719 718 718 717 716 716 715 714 714 714 714 714 714 715 715 716 716 717 718 719 720 721 721
741 741 741 740 741 741 740 739 739 740 740 740 739 738 738 737 736 735 734 734 734 734 733 733 732 731 730 730 730 730 729 728 728 728 727 727 726 726 726 725 725 724 724 724 723 723 723 723 723 723 723 723 722 722 722 721 721 720 720 719 719 718 718 718 717 716 715 714 714 713 713 712 712 712 712 712 712 713 713 713 714 715 716 717 718 718
741 741 741 740 740 740 740 739 738 739 739 739 738 737 737 736 735 734 733 732 732 732 732 732 731 730 729 728 728 728 728 727 726 726 725 725 724 724 723 723 723 723 722 722 722 721 721 721 721 721 721 720 720 720 720 719 719 718 718 718 717 717 716 716 715 714 713 713 712 711 710 710 710 709 709 709 710 710 710 711 711 712 713 713 714 715
741 740 740 740 739 739 739 738 738 738 738 738 737 736 735 735 735 734 733 731 731 731 731 730 730 729 729 728 727 727 726 725 724 724 723 723 723 722 722 721 721 720 720 719 719 719 719 719 719 719 718 718 718 718 718 717 717 717 716 716 715 715 714 713 713 712 711 711 710 709 708 708 708 708 707 707 708 708 708 708 708 709 710 710 711 712
740 740 740 739 739 738 738 738 738 737 737 737 736 735 734 734 734 734 733 731 730 730 729 729 728 728 727 727 726 725 725 724 723 723 722 721 721 721 720 719 718 718 718 717 717 717 717 717 717 717 716 716 716 716 716 715 715 715 714 714 713 713 712 712 711 710 709 709 708 707 707 706 706 705 705 705 705 705 705 706 706 706 707 708 708 709
740 740 739 739 738 738 738 738 737 737 736 736 736 735 734 734 733 733 732 730 729 729 729 728 726 725 725 725 725 724 723 722 721 721 720 720 719 719 718 717 716 716 716 715 714 714 715 715 714 714 714 714 714 714 714 713 713 713 713 712 711 711 710 710 709 708 708 707 706 706 705 704 704 703 703 703 703 703 703 703 703 704 704 705 705 706
739 739 739 738 738 737 737 738 737 736 736 736 735 735 734 733 733 732 731 729 728 728 728 726 724 723 723 723 723 723 722 721 720 719 718 718 718 718 717 716 715 714 714 713 713 712 713 713 713 712 712 712 712 712 712 712 711 711 710 710 709 709 708 708 707 706 706 705 704 704 703 702 702 701 701 701 701 701 701 701 701 701 701 702 703 703
739 739 738 737 737 737 737 737 736 735 735 734 734 734 733 732 732 731 731 729 728 727 726 725 723 722 721 721 722 722 721 719 718 718 717 715 715 716 716 715 713 713 712 712 711 710 711 711 710 710 710 710 710 710 710 709 709 709 708 708 707 706 706 705 705 704 703 703 702 702 701 700 700 699 699 699 698 698 698 698 698 698 699 699 700 700
738 738 737 736 736 735 735 736 735 734 734 733 733 733 732 732 731 730 729 728 727 726 725 724 723 721 719 719 719 720 720 719 717 716 716 714 713 714 715 714 713 711 711 710 709 709 709 708 708 708 708 708 708 708 708 707 707 706 706 705 704 704 703 703 702 702 701 701 700 699 699 698 698 697 697 697 696 696 696 696 696 696 696 697 697 698
736 735 735 735 734 733 733 734 733 733 733 732 732 731 731 730 730 729 728 728 727 726 724 724 723 722 720 718 718 718 719 718 717 715 715 713 712 713 714 713 712 711 710 709 708 708 708 707 707 706 706 705 705 705 705 704 704 704 703 703 702 701 701 700 700 699 698 698 698 697 697 696 696 695 695 694 694 694 694 694 694 694 694 694 694 695
734 734 734 733 733 732 732 732 732 732 731 731 730 730 729 728 728 728 727 726 726 725 724 723 722 720 720 718 717 717 719 718 717 715 714 712 711 711 713 713 711 710 709 708 707 707 707 706 705 704 704 703 702 702 701 701 701 700 700 700 699 699 698 698 697 697 696 696 695 694 694 694 693 693 693 692 692 692 692 692 692 692 692 692 692 692
734 733 733 733 732 731 731 731 731 731 730 729 729 728 727 727 726 726 725 725 724 723 723 722 720 718 718 717 716 716 717 717 716 714 713 711 710 710 711 712 710 708 707 706 706 706 705 704 703 703 702 701 700 699 698 698 697 697 697 697 697 696 696 695 695 694 694 693 693 692 692 691 691 690 690 690 689 689 689 689 689 689 689 689 689 689
733 733 733 733 732 731 730 730 730 730 729 729 728 727 726 726 725 724 723 723 723 721 721 720 718 717 716 715 714 714 715 716 714 713 712 710 709 708 709 710 709 707 706 704 704 704 704 703 702 701 700 699 698 697 696 695 694 694 693 693 693 693 693 693 693 692 692 691 690 690 689 689 688 688 688 687 687 687 687 687 687 687 687 686 686 686
732 731 731 731 731 730 729 728 728 728 728 728 727 726 725 725 724 723 722 722 721 720 719 718 716 715 715 714 713 713 714 715 714 713 712 710 707 705 708 708 707 705 704 703 702 702 702 701 700 699 698 698 697 696 695 694 693 692 691 690 690 690 690 690 690 690 689 689 688 688 687 686 686 685 685 685 684 684 684 684 684 684 684 683 683 683
731 729 729 729 729 728 728 727 727 726 726 726 725 724 723 723 722 721 720 720 719 718 717 716 715 714 714 713 712 712 713 713 713 713 712 708 704 703 706 706 705 703 702 701 701 700 700 699 698 698 697 696 696 695 694 693 691 690 689 688 688 688 688 688 688 687 687 687 686 685 685 684 683 683 683 683 682 682 682 681 681 681 681 681 681 681
728 728 727 727 727 726 726 725 724 724 723 723 722 722 721 721 720 719 718 718 717 716 714 714 713 712 710 710 710 709 709 711 712 711 709 706 703 702 703 704 703 701 699 699 699 699 698 697 697 696 696 695 694 693 693 691 690 689 688 686 686 685 685 685 685 685 684 684 683 683 683 682 681 681 680 680 680 679 679 679 679 678 678 678 678 678
726 725 725 724 724 724 723 723 722 722 721 721 720 719 719 719 718 717 716 715 714 713 712 711 710 708 707 708 708 707 706 708 709 708 707 704 702 700 700 702 701 699 697 697 698 698 696 694 694 694 694 693 692 692 691 690 689 688 686 685 684 683 683 683 683 682 682 682 681 681 680 680 679 678 678 678 678 677 677 677 677 676 676 676 676 676
725 724 723 723 722 722 722 721 720 720 720 719 719 718 718 718 717 715 714 713 712 712 710 708 706 705 705 705 705 703 703 705 705 705 704 702 699 697 697 699 699 697 694 694 695 696 694 692 692 692 692 691 690 690 689 688 687 686 685 683 682 681 681 680 680 680 679 679 678 678 678 677 677 676 676 675 675 675 675 675 674 674 674 674 674 674
723 722 722 721 721 720 720 719 719 719 718 718 718 718 717 717 715 713 712 711 711 710 708 705 703 702 702 702 701 701 701 702 702 701 701 700 697 695 694 696 696 695 693 692 693 693 692 690 689 689 689 688 688 688 687 686 685 684 683 682 680 679 678 678 678 678 677 677 676 676 675 675 674 674 673 673 673 673 673 672 672 672 672 672 672 671
721 720 719 719 718 718 718 718 717 717 717 716 716 716 716 715 714 711 708 708 709 708 705 702 701 700 699 698 698 697 698 698 698 698 698 698 695 693 692 694 694 693 691 690 690 690 689 688 687 686 686 686 685 685 684 684 683 682 681 680 678 678 677 677 676 676 675 675 674 673 673 673 672 672 671 671 670 670 670 670 670 670 670 670 669 669
718 717 717 716 716 716 716 715 715 715 715 714 714 714 714 714 712 709 707 707 707 705 701 699 698 698 696 695 694 694 694 694 694 695 696 696 693 691 691 692 692 691 690 689 688 687 686 685 684 684 683 683 683 683 682 682 681 680 679 678 677 676 675 674 674 673 673 672 672 671 671 670 670 669 669 668 668 668 668 668 668 668 668 668 667 666
716 715 714 713 713 713 713 713 713 713 713 712 712 712 711 711 709 707 705 705 705 703 700 698 697 696 695 694 693 692 691 692 693 694 694 693 690 688 689 691 690 689 689 689 687 684 682 682 682 682 681 681 681 681 680 679 678 678 677 676 675 674 673 672 672 671 670 670 669 669 668 668 668 667 666 666 666 666 666 666 666 665 665 665 664 664
713 713 712 712 712 712 711 711 710 710 710 709 709 708 708 707 706 705 704 703 703 702 700 698 696 696 695 694 693 690 688 689 691 693 693 691 688 687 688 689 688 687 688 688 687 683 679 678 679 680 680 679 678 678 678 678 676 676 675 674 673 672 671 670 669 669 668 668 667 667 666 666 665 665 664 664 664 663 663 663 663 663 663 663 663 662
712 712 711 711 710 710 709 709 708 707 707 706 705 705 704 704 703 703 702 701 701 700 698 697 696 695 694 694 693 690 687 688 689 691 692 690 687 686 688 688 687 685 685 687 686 683 679 677 677 678 678 677 676 676 676 675 674 673 673 672 671 670 669 669 668 667 667 666 666 665 664 664 663 663 663 662 662 662 661 662 662 662 661 661 660 659
710 710 709 709 708 708 707 706 706 705 704 703 703 702 702 701 701 700 699 699 698 698 697 695 694 693 693 692 691 688 687 686 688 689 690 689 686 685 685 686 685 683 683 683 683 682 680 677 675 675 675 674 673 673 672 672 671 671 671 670 669 668 668 668 667 666 665 664 664 663 662 662 661 661 660 660 660 659 659 659 659 659 659 659 658 658
709 708 707 707 706 705 704 704 703 702 701 701 700 699 699 699 698 698 697 696 695 695 694 693 693 692 691 690 688 687 685 685 686 687 688 687 685 683 683 683 682 681 681 680 679 679 677 675 674 673 672 670 670 669 669 668 668 668 668 668 667 667 666 665 665 664 663 663 662 661 660 659 659 658 658 658 657 657 657 657 657 657 657 657 656 656
707 707 706 705 704 703 702 702 701 700 699 698 698 698 697 697 696 695 694 693 693 693 692 692 691 691 690 688 687 685 683 683 684 686 686 685 683 682 681 680 679 679 679 677 676 676 674 673 672 671 669 667 666 666 666 666 666 666 666 666 665 664 663 663 663 662 661 660 660 659 658 658 657 656 656 655 655 655 655 654 654 654 654 654 654 654
706 705 704 704 703 702 701 700 699 699 698 697 696 696 695 695 694 693 693 692 691 691 690 690 689 689 688 687 685 683 682 682 683 684 684 683 682 681 679 677 677 677 676 674 673 672 671 670 669 668 667 665 663 662 663 663 663 663 663 663 663 662 661 661 660 660 659 658 658 657 656 656 655 655 654 653 653 653 653 652 652 652 652 652 652 652
705 703 703 702 702 700 699 698 698 697 696 695 694 694 693 693 692 691 690 690 689 688 688 688 687 686 685 685 683 682 681 681 681 682 682 681 681 680 678 676 675 675 674 673 671 670 670 669 667 666 665 663 662 660 660 661 661 661 660 660 660 659 658 658 658 658 657 656 655 654 654 653 653 653 652 651 651 651 650 650 649 649 649 649 648 648
703 702 701 701 700 699 698 697 696 695 694 693 693 692 692 691 690 689 688 688 687 686 686 685 684 683 683 682 681 680 679 679 679 679 679 679 679 678 677 674 673 673 673 672 671 670 669 668 666 664 662 661 660 659 659 659 659 659 658 658 657 657 656 655 655 655 654 654 653 652 652 651 651 650 650 649 648 648 648 647 647 647 647 646 645 645
702 701 700 699 698 698 697 696 695 694 693 692 691 690 690 689 688 687 686 685 685 684 683 683 682 681 680 679 678 678 677 676 676 676 676 676 676 675 675 673 672 671 671 670 670 669 668 666 664 663 661 659 658 657 657 658 657 657 656 656 655 654 653 653 653 653 652 652 651 650 650 649 649 648 648 647 646 646 645 644 644 644 644 643 643 642
701 700 699 698 697 696 695 694 693 692 691 690 689 688 688 687 686 685 684 683 682 682 681 680 679 678 677 677 676 675 674 674 673 673 673 673 672 672 672 671 669 668 668 668 667 666 665 664 662 661 660 658 657 656 655 655 655 655 655 654 652 651 650 650 650 650 650 649 649 648 648 647 647 646 645 644 644 643 643 642 642 642 642 642 641 640
700 699 698 696 695 694 693 692 691 690 689 688 687 686 685 684 683 682 681 681 680 679 679 678 677 676 674 673 673 672 671 671 670 670 669 669 669 668 668 668 667 666 665 665 664 663 662 661 660 658 658 656 655 654 653 653 653 653 653 652 650 648 648 648 648 648 647 647 646 646 646 645 644 643 643 642 641 640 640 640 640 639 639 639 639 638
698 697 696 694 693 693 691 690 689 688 688 687 686 684 683 683 682 681 680 679 678 677 677 676 675 673 672 670 669 668 668 667 667 666 666 666 665 665 664 664 663 663 662 662 660 659 659 658 657 656 655 654 653 652 650 649 649 650 650 649 648 647 646 644 644 645 645 644 644 643 643 643 642 641 640 639 638 638 637 637 637 637 637 636 636 636
697 695 694 693 692 691 690 689 688 687 687 686 685 683 683 682 681 680 679 678 677 676 675 674 673 671 669 667 666 665 665 664 664 663 663 663 662 661 661 660 660 659 659 658 657 656 655 655 654 653 652 652 651 650 648 647 646 646 646 646 646 645 643 641 641 642 643 642 642 641 641 641 640 639 638 637 636 635 635 634 634 634 634 634 633 633
695 694 693 692 691 690 689 688 688 687 686 685 683 683 682 681 680 679 678 677 675 674 673 672 671 669 667 665 664 663 663 662 662 662 660 659 659 658 657 657 656 656 656 655 654 653 652 652 651 650 649 649 648 647 645 644 643 643 643 643 643 642 641 639 639 639 640 640 639 639 639 638 638 637 636 634 633 633 633 632 632 631 631 631 631 630
695 693 693 692 691 690 688 688 687 686 685 683 682 681 680 679 678 678 676 675 673 672 671 671 670 668 667 665 663 663 661 660 659 659 658 657 656 655 654 654 653 653 652 652 651 650 649 648 647 646 646 646 645 644 643 642 641 640 640 640 640 640 639 638 638 638 637 637 637 636 636 636 635 635 633 632 631 630 630 629 629 628 628 628 628 627
694 693 692 691 690 689 688 686 685 684 683 682 681 679 678 678 677 676 675 674 673 671 670 670 669 668 665 663 662 661 660 658 657 656 656 655 654 653 652 651 650 650 649 648 647 647 646 645 644 644 643 643 642 641 640 640 639 639 638 638 638 638 637 636 635 635 635 634 633 633 633 633 633 632 631 629 628 627 627 626 626 625 625 625 624 624
694 692 691 690 688 687 686 685 684 683 682 680 679 678 677 676 675 674 673 673 671 670 669 668 667 666 664 662 661 660 658 657 655 654 654 653 652 651 650 649 648 647 647 646 645 644 643 642 642 641 641 640 638 637 637 637 637 637 636 636 636 635 634 633 633 632 632 631 630 630 630 630 630 629 628 627 625 624 623 623 623 622 622 622 621 621
693 691 690 689 688 686 685 684 683 682 680 679 678 677 676 675 674 673 672 671 670 669 668 666 665 663 662 660 659 658 657 655 654 653 651 650 650 649 648 648 647 646 645 643 643 642 641 640 639 639 638 638 636 635 634 634 635 634 634 633 633 633 632 630 629 629 629 628 628 627 628 628 628 627 625 624 623 621 620 619 619 619 619 618 618 618
692 691 689 688 686 685 683 683 682 680 679 678 676 675 674 673 673 672 670 669 668 667 666 664 663 662 660 658 657 656 655 653 652 650 649 648 647 646 646 645 644 644 643 642 640 639 638 638 637 636 636 635 635 633 633 632 632 632 632 631 631 630 629 627 626 626 626 625 625 625 625 625 624 624 623 622 620 618 617 617 616 615 615 615 615 614
691 689 688 687 685 684 683 681 680 679 678 676 675 674 672 671 671 670 669 668 667 666 664 663 662 660 658 656 655 654 653 652 650 648 647 646 645 644 643 643 642 642 641 639 638 637 636 635 633 632 631 632 632 631 631 630 629 629 629 628 628 627 626 625 623 623 623 623 622 622 622 622 622 621 620 619 617 616 615 614 613 612 611 611 611 611
689 688 687 686 684 683 682 680 679 678 677 675 674 673 671 670 669 668 668 667 666 664 663 662 661 659 657 655 654 653 651 650 648 647 645 644 643 643 642 641 640 640 639 637 636 635 633 632 630 628 626 626 627 628 628 627 627 626 626 625 624 624 623 622 621 620 620 620 620 620 619 619 618 618 617 616 615 614 613 612 610 609 608 608 608 607